Find Starlink 32537

NORAD ID: 61923 Int'l Des: 2024-207 Owner: SPXS Country: US Constellation: starlink operational
LEOCIRCULAR

实时位置

正在加载3D地球...

关于 Starlink 32537

正在加载描述...

即将过境

Passes for default location (London). Set your location on the main map for personalized predictions.

高度历史

Loading altitude history...

两行轨道根数

1 61923U 24207M 26105.61231493 .00006623 00000-0 24995-3 0 9998
2 61923 42.9988 77.1319 0000978 277.7398 82.3343 15.27583061 80322
Epoch: Apr 15, 2026 • Age: 15 hours

当前状态

高度 494.9 km
速度 7.62 km/s
星下点 -41.08°S, 28.68°E
发射日期 Nov 11, 2024
运行时间 1.4 years
类型 internet

技术详情

分类 Payload
质量 730.00 kg
干质量 700.00 kg
总质量 730.00 kg
长度 0.30 m
直径 4.10 m
跨度 29.00 m
形状 Box + pan
制造商 SPXS
平台类型 Starlink V2M
阶段状态 In Orbit
所有者/国家 SPXS/US

Most Searched